Temperature
17 16 16 16 16 16 16 15 15 15 15 15 15 15 15 15 15 15 14 14 14 14 14 14 14 14 14 14 14 14 14 14 14 14 14 14 14 14 14 14 14 14 15
16 16 16 16 15 15 15 15 15 15 15 15 15 15 15 15 15 15 14 14 14 14 14 14 14 14 14 14 14 14 14 14 14 14 14 14 14 14 14 14 14 14 14
15 15 15 15 15 15 15 15 15 15 15 15 15 15 15 15 15 15 14 14 14 14 14 14 14 14 14 14 14 14 14 14 14 14 14 14 14 14 14 14 14 14 14
15 15 15 15 15 15 15 14 14 14 15 15 15 15 15 15 14 14 14 14 14 14 14 14 14 14 14 14 14 14 14 14 14 14 14 14 14 14 13 13 13 14 13
15 15 15 15 14 14 14 14 14 14 14 14 14 14 14 14 14 14 14 14 14 14 14 14 14 14 14 14 14 14 14 13 14 13 13 13 13 13 13 13 13 13 13
15 14 14 14 14 14 14 14 14 14 14 13 13 13 14 14 14 14 14 14 14 14 14 14 14 14 14 14 14 14 14 13 13 13 13 13 13 13 13 13 13 13 13
14 14 14 14 14 13 13 13 13 13 13 13 13 13 13 13 13 13 13 13 13 13 13 13 13 13 14 14 13 13 13 13 13 13 13 13 13 13 13 13 13 13 13
14 14 13 13 13 13 13 13 13 13 13 13 13 13 13 13 13 13 13 13 13 13 13 13 13 13 13 13 13 13 13 13 13 13 13 13 13 13 13 13 13 13 13
14 13 13 13 13 13 13 13 12 12 12 12 12 12 13 13 13 13 13 13 13 12 12 13 13 13 13 13 13 13 13 13 13 13 13 13 13 13 13 13 12 12 12
13 13 12 12 12 12 12 12 12 12 12 12 12 12 12 12 13 13 12 12 12 12 12 12 12 12 12 13 13 12 12 12 12 12 12 12 12 12 12 12 12 12 12
12 12 12 12 12 12 12 12 12 12 12 12 12 12 12 12 12 12 12 12 12 12 12 12 12 12 12 12 12 12 12 12 12 12 12 12 12 12 12 12 12 12 12
12 12 12 11 11 12 11 11 11 11 11 11 11 11 11 11 11 12 11 11 11 11 11 11 11 11 12 12 12 12 12 12 12 12 12 12 12 12 12 12 12 12 12
11 11 11 11 11 11 11 11 11 11 10 10 10 10 10 10 11 11 11 11 11 11 11 11 11 11 11 11 12 12 12 12 12 12 12 11 11 11 11 11 11 11 11
11 10 10 10 11 11 10 10 10 10 10 10 10 10 10 10 10 10 10 10 10 10 10 10 10 11 11 11 11 11 12 12 12 12 11 11 11 11 11 11 11 11 11
10 10 10 10 10 10 10 10 10 9 9 9 9 9 9 9 9 9 9 9 9 9 9 9 10 10 10 10 11 11 11 11 11 11 11 11 11 11 11 11 11 10 10
10 9 9 9 9 9 9 9 9 9 9 9 9 9 9 9 9 9 9 9 9 9 9 9 9 9 9 10 10 10 11 11 11 11 11 11 10 10 10 10 10 10 10
9 9 9 9 9 9 8 8 8 8 8 8 8 8 8 8 8 8 8 8 8 8 8 8 9 9 9 9 9 10 10 10 11 11 11 10 10 10 10 10 10 10 9
9 9 8 8 8 8 8 8 8 8 8 8 8 8 8 8 8 8 8 8 8 8 8 8 8 8 9 9 9 9 9 10 10 10 10 10 10 10 10 10 9 9 9
8 8 8 8 8 7 7 7 7 7 7 7 7 7 7 7 7 7 7 7 7 7 8 8 8 8 8 8 8 9 9 9 9 10 10 10 10 10 9 9 9 9 9
8 8 8 7 7 7 7 7 7 7 7 7 7 7 7 6 6 6 7 7 7 7 7 7 7 7 7 8 8 8 8 9 9 9 10 10 10 9 9 9 9 9 9
8 7 7 7 7 7 7 7 6 6 6 6 6 6 6 6 6 6 6 6 6 6 7 7 7 7 7 7 7 8 8 8 9 9 9 9 9 9 9 9 9 8 8
7 7 7 7 6 6 6 6 6 6 6 6 6 6 6 6 6 6 6 6 6 6 6 6 6 7 7 7 7 7 8 8 8 9 9 9 9 9 9 8 8 8 8
7 6 6 6 6 6 6 6 6 5 5 5 5 5 5 5 5 5 5 5 5 5 6 6 6 6 7 7 7 7 7 8 8 9 9 9 8 8 8 8 8 8 8
6 6 6 5 5 5 5 5 5 5 5 5 5 5 5 5 5 5 5 5 5 5 5 5 5 6 6 6 7 7 7 7 8 8 8 8 8 8 8 8 7 7 7
6 5 5 5 5 5 5 5 5 4 4 4 4 4 4 4 4 4 4 4 4 4 4 5 5 5 6 6 6 6 7 7 7 7 8 8 8 8 8 7 7 7 7
5 5 5 5 5 5 4 4 4 4 4 4 4 4 4 4 4 4 4 4 4 4 4 4 5 5 5 6 6 6 6 7 7 7 7 7 7 7 7 7 7 7 6
Wind_Speed
2 2 2 2 2 2 2 2 3 4 4 5 5 5 4 3 2 2 3 3 3 3 3 2 2 2 2 1 1 1 1 1 2 2 1 1 2 2 2 2 5 6 6
2 2 3 3 3 3 3 3 4 4 4 5 5 5 4 3 3 3 4 4 4 4 3 2 3 2 3 2 2 2 2 2 2 2 1 0 1 2 2 2 2 4 5
2 2 3 3 3 3 4 4 5 6 5 5 5 4 4 4 4 3 4 4 4 4 3 3 3 2 3 3 3 3 2 2 2 2 2 1 1 1 1 1 1 1 4
2 2 2 3 3 3 4 5 5 6 7 6 6 5 4 4 4 4 4 4 4 4 4 3 3 3 3 3 3 3 3 3 3 2 2 2 2 2 2 1 1 1 2
2 2 3 4 3 3 4 4 5 6 8 7 6 6 5 5 4 4 4 5 5 5 5 4 4 4 4 3 2 2 1 2 2 3 3 2 2 2 2 2 2 2 1
2 2 2 4 4 3 4 4 5 6 7 7 7 7 6 6 5 6 5 6 7 6 6 5 5 6 6 6 6 5 4 3 3 3 3 3 4 3 2 2 2 2 2
3 3 2 3 4 4 5 5 5 6 6 6 7 7 6 6 7 7 8 6 7 7 7 6 6 5 6 5 7 7 6 7 6 5 4 4 4 3 3 3 3 3 3
4 4 4 3 4 4 5 6 6 6 6 6 7 7 7 7 8 8 8 6 7 7 7 7 6 5 5 4 5 5 5 6 6 5 4 4 3 3 4 4 4 2 1
5 5 5 5 5 5 6 6 6 6 7 6 7 7 7 8 8 8 6 5 7 7 7 7 6 5 6 6 4 5 5 5 6 8 8 6 5 4 4 3 2 2 2
7 7 6 6 6 6 6 6 6 6 7 7 7 7 8 8 8 8 6 4 6 6 5 5 6 6 6 6 5 5 6 5 5 6 6 6 5 4 4 4 4 4 3
7 7 7 7 7 7 6 5 6 6 6 7 8 7 7 8 7 7 7 4 5 6 5 5 4 6 7 7 7 5 7 5 5 6 6 5 5 4 4 3 3 4 4
6 7 7 7 8 7 6 6 6 6 7 7 7 7 6 6 6 7 9 8 7 6 6 5 4 6 7 8 7 7 8 6 4 4 4 5 5 5 4 4 4 4 4
7 7 7 8 7 6 6 5 6 6 5 6 6 6 6 5 5 8 9 9 10 7 6 7 7 8 7 7 8 9 8 5 5 5 5 5 5 6 5 4 4 4 3
7 7 7 7 7 7 6 5 5 5 6 6 6 7 7 6 5 4 4 5 7 8 7 8 9 9 7 7 8 7 7 6 6 6 5 5 4 4 5 4 4 4 3
7 7 7 6 7 7 6 6 7 6 6 8 7 7 8 8 9 10 8 7 6 7 7 6 5 4 5 5 6 6 6 7 7 6 5 5 5 5 5 4 4 4 4
7 6 5 6 6 6 7 8 9 10 13 14 13 13 11 12 15 15 14 13 13 12 8 6 8 7 8 8 7 7 7 8 8 7 6 6 6 6 5 4 5 5 5
7 7 6 6 6 7 7 7 8 9 12 13 14 15 15 15 16 16 15 15 14 11 8 8 9 8 8 8 8 8 8 8 8 8 8 7 7 6 6 6 6 5 4
7 7 7 6 6 7 7 8 8 9 9 8 9 13 14 15 15 15 14 11 8 8 7 9 9 8 8 8 8 8 8 8 8 8 8 8 8 7 7 7 7 6 5
6 5 6 6 7 7 8 8 8 9 9 9 8 9 12 13 13 14 11 7 8 8 8 8 9 8 8 8 8 7 7 8 8 8 9 9 9 8 8 8 7 9 6
5 9 9 7 8 8 8 8 8 8 9 8 8 8 8 8 7 8 7 7 8 9 9 9 8 8 8 8 7 7 7 7 8 8 9 9 9 9 9 9 9 8 6
6 7 11 9 7 7 8 8 9 9 9 9 9 10 12 9 9 9 9 8 8 9 9 9 8 8 8 7 7 8 8 8 8 8 8 9 9 8 8 8 9 8 7
6 6 7 7 8 8 9 9 9 9 10 12 10 10 14 10 9 8 8 9 9 9 9 9 8 8 8 8 8 8 8 8 8 9 8 8 9 9 8 8 8 8 8
6 7 8 8 9 11 11 9 9 9 10 11 11 10 9 9 9 9 9 9 8 9 8 8 8 8 8 7 7 8 8 9 8 9 10 9 8 9 9 9 10 10 9
7 8 9 9 9 9 9 10 10 10 10 11 11 11 10 9 9 10 9 8 8 8 8 8 9 10 11 8 7 7 8 8 8 9 11 10 9 9 9 10 10 10 10
8 8 9 9 9 9 10 10 10 11 11 11 11 11 10 10 10 10 9 8 9 10 11 10 8 9 10 10 9 8 10 11 10 9 9 9 10 10 10 11 10 10 9
8 9 9 9 9 9 10 10 10 11 11 11 10 10 10 10 10 10 9 9 9 9 10 9 10 10 10 9 10 11 12 12 12 13 9 8 10 9 10 10 12 11 11
Wind_Direction
3 343 349 349 337 324 305 304 290 285 287 286 282 284 280 270 244 217 234 249 269 276 271 244 241 242 278 278 266 254 247 198 226 269 243 159 151 139 146 180 164 167 179
5 358 356 3 344 328 315 311 305 296 289 286 288 292 294 286 271 242 242 248 249 254 263 269 265 243 233 236 247 254 233 217 196 220 246 178 162 170 170 200 181 169 162
22 5 6 350 336 326 327 324 316 315 312 303 298 299 301 298 291 276 255 247 248 248 244 245 256 255 250 232 222 236 229 218 188 193 219 197 213 185 157 199 170 147 165
27 2 346 328 327 321 321 321 324 327 320 312 312 309 303 303 302 296 297 279 263 259 246 233 237 238 249 257 240 237 225 211 196 197 209 210 201 195 158 174 180 204 186
13 350 329 323 328 325 322 318 323 322 316 310 316 317 313 307 303 314 313 302 290 275 258 235 216 209 215 228 235 243 241 213 201 198 210 210 202 175 183 189 180 189 186
356 345 329 325 328 320 315 313 315 310 307 313 314 309 306 307 312 307 301 303 296 285 273 252 227 216 219 219 214 206 199 210 210 209 209 205 203 191 185 180 180 170 205
354 346 330 324 321 316 313 308 300 296 294 300 302 298 292 285 286 288 281 283 285 284 280 271 261 232 214 217 219 219 222 223 213 206 205 208 199 191 179 184 192 186 201
2 346 332 324 317 313 306 297 290 292 294 288 287 289 287 283 277 275 277 277 278 276 276 274 262 242 233 221 220 219 217 223 220 209 201 203 191 184 181 190 194 183 176
4 347 338 331 316 302 294 289 286 289 289 287 284 283 284 282 272 269 267 278 277 272 270 275 272 255 241 233 230 226 217 215 207 186 182 179 167 165 156 148 167 166 199
354 341 333 322 308 297 290 287 286 282 279 284 284 281 283 283 271 269 268 273 283 283 275 265 263 257 252 234 234 230 225 219 200 195 191 191 189 183 173 169 174 177 184
338 329 319 312 305 295 288 290 292 289 287 283 284 281 279 283 278 270 263 265 280 292 286 274 260 253 254 250 239 233 232 218 205 195 187 187 185 182 182 180 172 171 179
325 319 312 308 306 308 297 290 293 296 295 290 287 290 285 280 279 276 270 265 279 286 287 284 269 258 256 259 252 236 228 219 208 201 190 191 190 189 185 180 165 155 156
323 319 313 312 311 309 307 304 300 295 291 293 295 295 297 296 286 281 273 278 281 283 286 287 274 266 256 253 247 235 221 216 207 206 200 199 193 185 176 174 171 151 134
322 320 317 319 321 323 320 308 302 299 296 293 294 293 292 290 286 282 282 289 287 285 284 284 276 258 245 242 243 236 224 210 204 207 199 192 180 174 176 174 172 165 152
318 320 321 319 317 316 312 308 304 292 286 289 290 292 295 293 287 282 281 278 274 270 283 284 269 254 244 246 240 225 219 213 209 205 197 190 185 182 182 174 166 163 168
318 321 319 314 311 312 311 310 303 294 292 287 281 281 286 284 290 287 281 279 275 272 274 269 257 245 239 235 236 232 225 216 206 201 198 191 187 182 178 172 166 168 172
311 314 315 315 315 309 307 306 307 305 297 292 289 288 284 284 287 285 281 279 276 272 264 262 255 247 242 235 232 231 229 225 208 198 195 191 184 179 175 174 173 174 177
306 309 310 305 305 304 302 301 300 302 304 301 297 293 290 286 283 280 280 282 278 264 252 257 259 252 247 241 235 234 228 224 216 201 192 189 183 180 179 177 176 176 177
302 299 300 298 295 295 295 296 296 296 295 297 300 301 297 293 286 279 276 267 266 266 260 256 256 258 253 245 238 233 229 223 218 203 194 188 184 179 181 179 176 178 174
288 292 296 295 293 293 294 294 294 294 295 295 295 296 300 299 295 287 271 265 265 266 264 260 257 257 257 251 242 233 231 226 216 208 196 188 184 181 181 179 177 176 176
288 292 295 295 291 292 293 294 295 294 296 296 292 289 293 292 286 284 279 269 265 266 264 262 258 255 255 251 244 235 231 230 212 203 196 188 182 179 177 175 174 171 166
292 291 292 294 295 293 294 294 294 296 297 296 295 291 289 285 281 280 280 279 272 269 263 259 259 255 249 246 241 236 234 231 216 199 191 188 182 176 171 170 168 167 166
289 292 295 294 293 294 294 291 292 293 294 296 298 297 290 285 284 283 281 278 279 277 271 263 261 261 255 246 239 235 233 227 213 199 186 183 181 177 171 169 168 166 168
292 290 292 293 293 292 293 293 293 294 295 295 296 296 291 284 283 283 283 281 281 283 280 271 265 260 256 254 242 233 232 221 204 196 183 180 180 177 170 167 167 166 164
289 288 288 289 289 291 293 294 294 296 296 296 296 295 296 292 286 283 280 280 281 282 283 279 271 261 251 245 242 238 226 211 203 190 180 176 174 173 169 165 164 162 159
283 284 285 286 285 288 291 292 293 296 297 296 297 297 295 293 290 286 281 278 279 281 283 279 271 263 251 242 239 233 217 202 192 183 179 174 170 170 166 164 160 160 156
Height
1520 1520 1519 1519 1519 1518 1518 1517 1516 1515 1514 1513 1513 1512 1511 1510 1510 1508 1508 1507 1506 1506 1505 1504 1503 1503 1503 1503 1503 1503 1504 1504 1504 1504 1505 1505 1505 1505 1506 1506 1507 1508 1509
1519 1519 1519 1518 1517 1517 1516 1515 1515 1514 1513 1512 1511 1510 1509 1508 1508 1507 1506 1505 1504 1504 1503 1503 1502 1501 1501 1501 1501 1501 1501 1501 1502 1502 1502 1502 1503 1503 1503 1504 1505 1505 1506
1519 1518 1518 1517 1516 1515 1514 1514 1513 1512 1511 1510 1509 1508 1507 1506 1505 1504 1503 1502 1502 1501 1501 1500 1499 1499 1499 1499 1498 1498 1498 1499 1499 1500 1499 1500 1500 1501 1501 1502 1503 1503 1504
1518 1517 1517 1516 1515 1514 1513 1512 1511 1509 1508 1507 1507 1505 1504 1503 1502 1501 1500 1499 1499 1498 1498 1497 1496 1496 1496 1496 1495 1495 1496 1496 1496 1497 1497 1497 1498 1498 1499 1499 1500 1501 1502
1517 1516 1515 1515 1514 1513 1511 1510 1508 1507 1506 1505 1504 1502 1501 1500 1499 1498 1497 1496 1495 1494 1494 1493 1493 1493 1492 1492 1492 1492 1492 1492 1493 1493 1494 1494 1495 1495 1496 1497 1498 1499 1500
1516 1515 1514 1513 1512 1510 1509 1507 1506 1504 1503 1501 1500 1499 1498 1497 1496 1495 1493 1492 1491 1490 1490 1489 1489 1488 1488 1488 1488 1488 1489 1489 1489 1489 1490 1491 1491 1492 1493 1494 1495 1496 1497
1515 1513 1512 1511 1509 1508 1506 1505 1503 1501 1500 1498 1496 1495 1494 1493 1492 1490 1489 1488 1487 1486 1485 1485 1485 1484 1484 1484 1484 1484 1484 1484 1485 1486 1486 1486 1488 1489 1490 1490 1492 1493 1493
1513 1511 1510 1508 1507 1505 1503 1502 1500 1499 1497 1495 1493 1491 1490 1489 1487 1486 1485 1483 1482 1481 1480 1480 1480 1479 1480 1480 1479 1479 1479 1479 1480 1480 1481 1483 1484 1485 1486 1487 1488 1490 1491
1511 1509 1507 1506 1504 1502 1500 1498 1497 1495 1493 1491 1489 1488 1486 1484 1483 1482 1480 1478 1477 1476 1475 1475 1475 1474 1475 1475 1475 1474 1474 1474 1475 1476 1477 1478 1480 1481 1482 1483 1484 1486 1486
1508 1506 1505 1503 1501 1499 1497 1495 1493 1491 1489 1487 1485 1484 1482 1480 1479 1477 1476 1474 1472 1471 1470 1469 1469 1469 1469 1470 1470 1469 1469 1469 1470 1471 1472 1473 1475 1476 1478 1479 1480 1482 1483
1506 1504 1502 1500 1498 1496 1494 1492 1490 1487 1485 1483 1481 1479 1477 1475 1474 1472 1471 1469 1468 1466 1465 1464 1463 1463 1463 1463 1464 1464 1464 1465 1465 1466 1467 1468 1470 1471 1472 1474 1475 1477 1479
1503 1500 1498 1496 1494 1492 1490 1488 1486 1483 1481 1479 1476 1474 1472 1471 1469 1467 1466 1464 1463 1461 1459 1458 1457 1457 1456 1456 1456 1457 1458 1459 1460 1461 1462 1463 1464 1466 1467 1469 1471 1472 1474
1499 1497 1495 1493 1491 1489 1486 1484 1481 1479 1477 1474 1472 1469 1467 1465 1463 1462 1460 1459 1457 1455 1453 1452 1451 1451 1450 1450 1450 1450 1452 1453 1454 1455 1456 1458 1459 1461 1463 1464 1466 1468 1470
1496 1494 1492 1489 1487 1484 1482 1480 1478 1475 1473 1470 1468 1465 1462 1460 1458 1456 1454 1453 1451 1449 1447 1445 1444 1444 1443 1443 1443 1443 1444 1446 1447 1449 1451 1453 1454 1456 1458 1459 1461 1463 1465
1493 1491 1488 1486 1483 1480 1478 1476 1473 1471 1469 1466 1463 1461 1458 1454 1452 1451 1449 1447 1445 1443 1441 1438 1437 1436 1436 1435 1436 1436 1437 1439 1440 1443 1445 1447 1449 1450 1452 1454 1456 1457 1459
1489 1487 1484 1481 1479 1476 1473 1470 1468 1466 1464 1461 1459 1456 1452 1450 1447 1444 1442 1440 1438 1437 1435 1432 1430 1429 1429 1429 1429 1429 1430 1431 1433 1436 1438 1440 1442 1444 1446 1448 1450 1452 1454
1485 1482 1480 1477 1474 1471 1468 1465 1461 1458 1457 1455 1452 1449 1446 1443 1440 1437 1435 1433 1431 1429 1427 1425 1423 1423 1422 1422 1422 1422 1423 1424 1426 1429 1431 1433 1436 1438 1440 1442 1444 1447 1449
1481 1478 1475 1472 1469 1466 1463 1460 1457 1453 1449 1446 1445 1442 1440 1436 1433 1430 1428 1425 1422 1421 1419 1417 1416 1415 1415 1415 1415 1415 1416 1417 1419 1421 1423 1426 1429 1432 1434 1436 1439 1441 1444
1476 1473 1470 1467 1464 1461 1458 1455 1452 1448 1444 1441 1437 1435 1432 1429 1426 1423 1421 1418 1415 1413 1412 1410 1409 1409 1408 1408 1408 1409 1409 1410 1411 1413 1416 1419 1422 1425 1427 1430 1433 1436 1439
1470 1468 1465 1462 1459 1456 1453 1449 1446 1442 1439 1435 1431 1428 1425 1422 1418 1415 1413 1411 1409 1406 1405 1403 1402 1401 1401 1401 1401 1401 1402 1402 1404 1406 1408 1411 1414 1418 1421 1424 1427 1430 1433
1465 1462 1459 1456 1453 1450 1447 1443 1440 1436 1432 1429 1425 1422 1419 1415 1411 1408 1406 1404 1401 1399 1397 1396 1394 1393 1393 1393 1393 1393 1394 1395 1396 1398 1401 1404 1407 1411 1414 1417 1421 1425 1428
1459 1456 1453 1450 1447 1444 1440 1437 1433 1429 1425 1421 1417 1414 1411 1408 1404 1401 1398 1396 1394 1392 1390 1388 1386 1385 1385 1385 1385 1385 1386 1387 1388 1391 1393 1397 1400 1404 1408 1411 1415 1419 1423
1453 1450 1447 1444 1441 1437 1434 1430 1426 1423 1419 1414 1410 1406 1403 1400 1396 1393 1390 1387 1385 1383 1382 1380 1378 1377 1376 1376 1376 1377 1377 1379 1381 1383 1386 1389 1393 1397 1401 1405 1409 1413 1417
1447 1444 1440 1437 1434 1430 1427 1423 1419 1415 1411 1407 1403 1399 1395 1391 1388 1385 1382 1379 1376 1374 1373 1372 1370 1369 1368 1368 1368 1368 1370 1371 1374 1376 1379 1382 1386 1390 1394 1399 1403 1407 1411
1440 1437 1434 1431 1427 1423 1420 1416 1412 1408 1403 1399 1395 1391 1387 1383 1379 1376 1374 1371 1368 1366 1363 1362 1361 1360 1360 1359 1360 1360 1361 1364 1366 1369 1372 1376 1379 1384 1388 1393 1397 1402 1406
1433 1430 1427 1424 1420 1416 1412 1408 1404 1400 1396 1391 1387 1383 1378 1375 1371 1368 1365 1363 1360 1357 1355 1353 1352 1351 1351 1351 1351 1352 1354 1356 1359 1362 1366 1369 1373 1377 1382 1387 1392 1397 1401